< < Back
Terminal Aerodrome Forecast


Current Version              Previous Versions:   1  2  3  4  5  6  7  8  9  

Terminal Aerodrome Forecast

470
FTUS42 KFFC 261729
TAFPDK
TAF
KPDK 261729Z 2618/2718 24005KT P6SM SCT050
     FM270100 00000KT P6SM SCT045
     FM271500 15004KT P6SM BKN050=

Latest METAR

252
SAUS70 KWBC 270200 RRG
MTRPDK
METAR KPDK 270153Z 18006KT 10SM BKN055 BKN070 26/17 A3009 RMK AO2 SLP173
T02560172


USA.gov is the U.S. government's official web portal to all federal, state and local government web resources and services.